Regional Weather Roundup
Issued by NWS Cleveland, OH

Home | Current Version | Previous Version | Graphics & Text | Print | Product List | Glossary On
Versions: 1 2 3 4 5 6 7 8 9 10 11 12 13 14 15 16 17 18 19 20 21 22 23 24 25 26 27 28 29 30 31 32 33 34 35 36 37 38 39 40 41 42 43 44 45 46 47 48 49 50
000
ASUS41 KCLE 020700
RWRCLE
OHIO REGIONAL WEATHER ROUNDUP
NATIONAL WEATHER SERVICE WILMINGTON, OH
300 AM EDT THU APR 02 2015

NOTE: "FAIR" INDICATES FEW OR NO CLOUDS BELOW 12,000 FEET WITH NO
SIGNIFICANT WEATHER AND/OR OBSTRUCTIONS TO VISIBILITY.

OHZ001>008-015>018-024>027-034-035-043-044-020800-
   NORTHWEST OHIO

CITY           SKY/WX    TMP DP  RH WIND       PRES   REMARKS
DEFIANCE       MOCLDY    51  31  46 S7        29.94F
FINDLAY        MOCLDY    46  32  58 S12       29.95F
TOLEDO EXPRESS PTCLDY    49  31  49 S9        29.94F
TOLEDO EXEC    PTCLDY    46  32  58 S9        29.96F
LIMA           MOCLDY    47  31  53 S9        29.95F
$$

OHZ009>014-019>023-028>033-038-089-020800-
   NORTHEAST OHIO

CITY           SKY/WX    TMP DP  RH WIND       PRES   REMARKS
CLE-HOPKINS    PTCLDY    51  29  42 S14       30.02F
CLE-LAKEFRONT  CLEAR     51  30  44 S14       29.99F
CUY CO. ARPT   NOT AVBL
LORAIN-ELYRIA  CLEAR     47  32  56 S12       29.99F
ASHTABULA      PTCLDY    43  30  60 S9        30.05F
AKRON-CANTON   CLEAR     45  27  49 S10       30.04F
WOOSTER        NOT AVBL
MANSFIELD      CLEAR     50  28  42 S15       30.00F
YOUNGSTOWN     PTCLDY    46  27  47 S8        30.05F
$$

OHZ042-051>053-060>062-070>072-077>081-020800-
  SOUTHWEST OHIO

CITY           SKY/WX    TMP DP  RH WIND       PRES   REMARKS
CINC-COVINGTON PTCLDY    52  24  33 S13       29.98F
CINC-LUNKEN    CLEAR     40  35  83 CALM      30.00F
HAMILTON       CLEAR     45  29  53 E3        29.98F
DAYTON         NOT AVBL
WRIGHT-PAT AFB PTCLDY    50  26  39 SE7       29.97F
DAYTON GENERAL CLEAR     50  26  39 S10       29.97F
WILMINGTON     CLEAR     47  26  44 S9        29.98F
$$

OHZ036-037-039>041-045>050-054>059-063>069-073>076-082>088-020800-
  CENTRAL AND SOUTHEAST OHIO

CITY           SKY/WX    TMP DP  RH WIND       PRES   REMARKS
COLUMBUS       MOCLDY    48  26  42 SE7       30.01F
OSU AIRPORT    MOCLDY    47  27  45 SE7       30.00F
BOLTON FIELD   NOT AVBL
RICKENBACK AFB NOT AVBL
NEWARK         PTCLDY    37  30  75 CALM      30.02F
MARION         PTCLDY    46  29  51 S10       29.99F
LANCASTER      PTCLDY    46  28  49 SE8       30.03F
ZANESVILLE     PTCLDY    40  26  57 SE6       30.05F
NEW PHILLY     CLEAR     38  29  70 CALM      30.06F
$$



USA.gov is the U.S. government's official web portal to all federal, state and local government web resources and services.